Temperature
28 24 24 25 25 26 27 26 26 27 28 27 26 25 25 25 24 23 23 22 22 22 22 22 21 21 21 21 20 20 20 20 19 19 19 19 19 19 19 19 19 19 19 19
24 24 26 27 28 28 27 26 26 27 28 27 25 25 25 24 24 24 23 22 22 22 22 21 21 21 21 21 21 20 20 20 20 19 19 19 19 19 19 19 19 19 19 19
25 26 28 28 28 28 27 26 26 26 27 27 26 24 24 24 24 24 24 23 23 23 22 22 21 21 21 21 21 21 20 20 20 20 19 19 19 19 19 19 19 19 19 19
26 27 28 28 28 28 26 27 27 27 25 23 25 23 23 24 24 24 24 23 23 23 23 22 22 21 21 21 21 21 21 20 20 20 19 19 19 19 19 19 19 19 19 19
26 27 27 28 28 28 27 28 28 27 25 24 24 23 22 23 23 24 24 24 23 23 23 22 22 22 22 22 21 21 21 20 20 20 20 19 19 19 19 19 19 19 19 19
26 28 28 28 29 29 28 27 25 23 22 23 23 23 22 22 23 24 24 24 24 23 23 23 23 22 22 22 21 21 21 20 20 20 20 20 19 19 19 19 19 19 19 19
26 27 28 29 28 28 26 23 22 22 21 22 22 23 22 23 24 25 25 24 24 24 24 23 23 22 22 22 21 21 21 21 20 20 20 20 20 19 19 19 19 19 19 19
24 24 27 28 27 26 26 23 22 22 22 22 22 23 23 24 25 25 25 25 25 24 24 24 23 23 23 22 22 21 21 21 21 20 20 20 20 20 20 19 19 19 19 19
23 24 27 28 29 27 26 24 22 21 21 21 21 22 23 24 24 24 24 25 24 24 24 24 23 23 23 22 22 22 22 21 21 21 20 20 20 20 20 19 19 19 19 19
24 24 26 28 28 27 27 25 21 21 21 21 22 22 22 23 23 23 23 23 24 24 24 24 23 23 23 23 22 22 22 21 21 21 21 20 20 20 20 19 19 19 19 19
24 23 24 25 26 26 26 26 22 19 20 20 21 22 24 23 23 22 22 23 24 24 24 24 23 23 23 23 22 22 21 21 21 21 21 20 20 20 20 19 19 19 19 19
23 20 22 24 25 26 26 25 22 22 21 19 20 21 24 23 23 23 23 23 23 23 24 24 24 23 23 22 22 22 22 21 21 21 21 20 20 20 20 19 19 19 19 19
23 20 21 22 22 24 25 25 23 20 19 19 20 22 23 22 22 23 23 23 23 23 23 24 23 23 23 22 22 22 22 21 21 21 20 20 20 20 20 19 19 19 19 19
22 19 20 21 21 23 24 25 25 22 20 20 21 22 22 22 22 22 23 23 23 23 23 23 23 23 22 22 22 22 21 21 21 20 20 20 20 20 20 19 19 19 19 19
20 20 21 21 23 24 24 24 25 24 22 21 21 21 22 21 21 22 23 23 22 22 22 22 22 22 22 22 21 21 21 21 21 20 20 20 20 20 19 19 19 19 18 18
18 20 20 21 23 23 23 24 24 24 24 23 22 21 21 22 22 21 22 22 21 22 22 22 22 22 21 21 21 21 21 21 21 20 20 20 20 19 19 19 18 18 18 18
18 18 19 19 20 22 21 23 23 23 22 22 21 20 20 20 20 20 21 21 21 21 21 22 21 21 21 21 21 21 21 20 20 20 20 20 19 19 19 19 18 18 18 18
18 17 16 17 19 20 20 21 23 22 21 20 20 20 20 20 20 21 21 21 21 21 21 21 21 21 21 21 21 21 20 20 20 20 19 19 19 19 19 18 18 18 18 17
17 17 16 16 18 19 20 22 22 21 19 19 19 19 20 20 19 19 20 21 21 21 21 21 21 21 21 21 20 20 20 20 19 19 19 19 19 18 18 18 18 17 17 17
16 16 16 16 18 18 19 21 22 20 18 19 19 18 19 19 17 17 19 20 20 20 20 20 20 20 20 20 20 20 19 19 19 18 18 18 18 18 17 17 17 17 16 16
16 16 16 16 16 17 19 20 21 19 17 19 19 19 19 18 18 19 19 19 19 19 19 19 19 19 19 19 19 19 19 18 18 18 18 18 17 17 17 17 17 17 16 16
15 15 15 15 16 16 19 19 18 17 18 19 19 19 19 19 19 19 19 19 19 19 19 18 18 18 18 18 18 18 18 18 18 17 17 17 17 17 17 16 16 16 16 16
15 15 14 14 15 16 18 18 18 19 18 19 19 19 19 19 19 19 19 18 18 18 18 18 18 18 17 17 17 17 17 17 17 17 17 17 16 16 16 16 16 16 15 15
15 15 14 14 15 16 17 18 18 18 18 18 19 19 19 18 18 18 18 18 18 17 17 17 17 17 17 16 16 16 16 16 16 16 16 16 16 16 16 15 15 15 15 15
15 14 13 13 14 16 17 17 18 18 18 18 18 18 18 18 17 17 17 17 17 17 17 17 17 16 16 16 16 16 16 16 16 16 15 15 15 15 15 15 15 15 15 15
14 14 13 13 14 14 16 17 17 17 17 17 17 17 17 17 17 17 17 16 16 16 16 16 16 16 16 16 15 15 15 15 15 15 15 15 15 15 15 14 14 15 15 14
Wind_Speed
2 3 3 8 7 7 3 3 5 6 4 3 5 8 14 14 14 14 14 13 12 12 11 13 14 14 13 12 11 11 10 9 7 5 4 4 3 3 3 4 8 9 9 9
5 5 11 9 5 4 3 3 5 5 3 2 4 5 9 13 15 17 18 17 15 11 10 12 13 14 14 14 12 11 10 10 9 7 5 4 4 4 4 4 5 9 9 9
7 9 6 4 5 3 4 4 5 4 3 3 5 1 4 7 8 11 15 16 16 18 17 15 15 15 15 15 15 14 12 10 9 8 4 3 2 1 2 3 3 5 8 9
6 7 4 4 6 4 5 7 5 2 2 2 4 3 6 7 7 11 13 14 16 17 16 15 16 16 17 17 15 13 12 11 10 9 7 7 6 5 5 4 4 4 6 7
6 5 4 6 8 6 6 5 3 2 2 1 2 3 6 3 7 11 13 17 17 18 19 19 19 18 17 16 15 13 12 11 11 10 9 8 7 5 4 3 4 5 4 6
8 6 5 6 6 4 3 2 5 5 5 1 4 3 6 6 11 10 11 14 16 16 17 17 16 14 13 13 13 12 12 12 11 11 10 10 9 7 5 5 6 5 4 4
7 8 5 3 2 4 3 5 4 5 5 5 4 2 8 9 9 10 11 12 14 14 15 15 15 15 14 15 14 13 13 12 12 12 11 11 10 9 8 7 7 6 4 4
3 7 6 2 5 5 3 9 7 5 5 5 4 4 7 7 3 4 6 8 10 12 12 15 17 17 16 16 15 14 14 13 12 12 11 10 9 8 7 7 7 7 6 6
5 7 6 5 3 5 3 4 9 8 3 1 4 5 6 4 4 3 3 4 7 10 11 12 13 15 15 16 16 15 15 13 12 12 11 10 9 8 8 7 6 6 6 6
7 5 6 4 3 3 5 6 6 5 4 2 4 4 4 3 2 3 3 4 5 7 9 10 10 11 13 13 13 13 13 13 11 11 11 11 9 9 8 6 7 6 6 6
6 5 5 3 1 4 3 1 4 5 6 6 4 7 7 9 8 7 7 5 5 6 7 8 9 9 10 10 11 12 13 12 11 11 10 9 9 8 7 7 7 6 5 6
2 5 3 6 6 3 3 4 6 4 3 5 5 8 6 7 7 7 7 7 5 6 6 8 9 9 9 9 10 11 12 12 12 11 10 9 8 8 8 8 7 7 6 5
3 6 2 7 8 7 3 1 2 5 4 4 5 7 2 3 4 6 8 8 6 6 5 6 7 7 7 8 8 9 10 12 11 10 10 10 9 8 9 9 8 7 7 6
4 5 6 7 7 4 5 7 4 3 3 4 6 7 4 4 6 6 7 7 7 6 6 6 6 6 6 7 8 8 8 9 9 10 10 10 10 10 9 8 8 7 7 6
6 3 1 3 3 2 4 6 6 3 5 7 7 7 8 9 8 7 7 7 7 7 6 5 5 6 5 5 5 5 5 7 8 8 9 9 9 8 7 7 7 7 7 7
5 3 3 4 5 5 5 6 5 4 3 2 2 3 4 3 5 4 5 7 8 7 5 4 4 5 6 6 6 5 4 5 6 8 9 8 7 7 7 7 7 6 6 6
2 3 3 3 6 5 5 4 2 3 4 1 2 3 1 5 5 5 4 5 6 6 4 2 4 5 5 5 6 6 5 4 6 7 7 7 7 8 8 8 7 7 7 6
4 3 3 0 3 3 7 4 3 5 6 4 2 2 3 4 4 4 5 7 5 4 3 3 3 4 4 4 4 5 5 4 5 5 6 6 6 7 8 7 8 7 6 6
6 7 4 3 2 6 6 5 2 2 4 5 4 4 4 5 7 4 2 4 5 4 4 3 3 3 4 4 4 5 4 4 4 4 5 5 6 6 6 7 8 7 6 6
4 5 5 4 3 5 5 7 3 5 2 5 3 3 2 4 3 2 2 1 2 2 2 2 2 2 3 3 4 5 5 4 4 4 4 4 4 5 5 6 5 4 5 5
4 3 3 4 4 6 5 7 4 3 4 4 1 2 2 2 4 4 2 2 3 2 2 2 2 2 1 2 3 4 4 4 4 3 3 3 4 4 4 4 3 4 4 4
2 1 2 2 3 6 5 4 2 4 3 1 2 1 2 2 1 1 2 3 3 2 2 2 2 1 0 2 3 3 3 3 2 3 3 3 2 3 3 3 3 3 4 3
1 3 4 4 5 5 2 2 2 3 2 2 2 0 2 2 0 0 1 2 3 2 2 2 2 2 1 1 2 2 2 2 2 2 2 2 2 2 2 3 4 3 4 4
4 2 2 2 2 3 2 3 3 3 2 2 2 1 2 1 1 1 1 1 2 2 2 1 1 1 2 2 2 3 3 2 2 2 2 2 2 1 1 2 2 3 3 4
4 3 2 3 5 4 4 4 3 4 4 4 3 2 1 1 1 2 2 2 2 2 2 1 2 2 3 2 2 2 2 2 2 2 2 2 2 2 2 1 2 3 3 5
4 4 4 6 6 4 5 4 3 3 3 3 2 3 3 1 1 2 2 3 2 2 2 1 1 1 3 2 2 2 2 3 3 1 2 2 2 2 2 1 1 3 2 2
Wind_Direction
322 59 262 252 221 209 218 238 258 257 223 145 155 169 176 177 178 174 173 175 176 180 179 176 174 172 170 169 169 172 172 178 174 172 175 179 195 199 201 202 199 198 198 190
4 271 246 249 254 243 250 256 267 277 247 162 159 179 181 181 187 182 178 179 178 172 172 175 175 175 176 176 178 177 179 181 182 186 182 181 182 198 201 204 200 201 199 194
225 245 254 254 264 258 267 237 241 237 337 45 103 360 221 206 192 189 186 184 180 178 182 180 179 182 180 183 187 186 186 186 187 182 170 176 169 199 208 212 210 209 199 196
244 250 263 255 255 228 258 249 229 218 89 282 130 196 255 213 203 200 195 190 189 186 184 183 182 185 186 189 189 187 185 187 189 182 180 182 190 201 212 208 212 215 202 196
254 249 255 259 247 229 230 234 210 195 132 27 12 140 275 211 211 215 202 196 194 191 188 188 188 188 187 187 187 188 185 187 188 188 189 192 201 206 210 203 204 211 211 200
251 253 228 235 252 231 215 24 25 45 71 8 266 163 258 218 210 207 197 193 191 192 191 191 191 185 182 183 184 184 184 189 189 191 193 195 198 199 200 204 203 207 214 218
294 293 276 228 290 318 57 80 28 360 7 256 263 171 244 236 215 202 190 191 188 189 189 189 187 185 184 185 186 185 185 191 192 193 197 200 200 198 202 203 204 204 209 220
237 288 285 258 190 209 214 141 157 194 226 270 310 228 255 256 217 187 178 180 178 183 186 189 190 189 187 187 187 186 189 194 194 197 201 201 200 203 208 206 205 208 212 217
190 253 275 271 240 166 194 195 173 149 183 242 289 291 316 31 81 125 142 143 163 179 184 186 187 187 186 187 189 188 189 192 196 197 197 199 201 203 206 205 203 207 211 212
171 234 282 283 358 331 181 169 103 120 153 226 283 266 232 244 165 149 142 158 176 167 176 178 181 185 187 188 187 184 187 193 195 196 198 201 202 203 202 198 201 204 206 209
161 175 292 349 201 253 301 76 118 131 154 162 225 262 221 202 187 171 169 156 153 148 163 171 174 183 184 182 181 184 188 189 193 197 199 203 204 204 202 204 208 205 206 204
135 132 240 269 267 230 183 192 147 152 222 169 175 257 261 190 174 153 155 150 139 133 145 162 166 170 175 178 181 186 188 190 194 194 192 198 202 199 201 207 208 203 203 204
92 107 57 340 342 357 24 2 152 146 137 161 175 251 295 134 143 159 158 153 141 132 128 144 153 160 168 172 177 184 187 191 192 190 192 195 200 203 208 209 205 201 201 202
82 98 153 196 227 263 317 325 334 120 157 209 212 225 253 184 167 172 163 157 141 135 134 137 147 161 168 175 179 180 187 186 184 187 191 198 202 206 211 210 203 204 202 201
65 84 157 224 254 312 318 309 320 292 206 198 229 215 221 203 179 172 161 148 128 117 119 133 148 153 153 160 170 170 176 178 181 186 194 203 203 202 205 209 204 204 204 207
44 64 22 345 344 351 330 322 323 317 303 245 201 255 253 170 116 125 141 139 135 129 126 123 136 146 156 161 163 165 178 183 177 185 201 205 199 196 200 205 201 200 205 209
30 72 47 306 320 1 316 296 337 5 355 58 190 228 168 106 120 141 138 131 137 125 121 150 161 158 163 169 171 171 180 184 180 187 195 200 203 201 203 207 201 204 207 203
145 109 134 232 18 261 248 283 72 69 26 25 84 122 130 132 145 132 124 126 128 126 148 188 176 162 164 164 168 166 150 164 184 193 199 203 203 208 205 201 205 209 207 207
159 147 138 131 213 272 297 324 358 89 11 3 72 79 75 82 72 42 59 129 146 159 165 178 181 164 154 154 161 147 149 156 171 202 204 201 197 203 204 205 210 207 203 207
64 114 136 153 179 232 260 304 316 99 32 334 74 93 95 78 79 273 282 126 113 123 142 132 123 116 135 169 155 145 153 163 192 220 211 199 186 188 202 205 206 206 207 212
12 33 140 182 209 252 280 310 11 101 237 280 84 113 101 127 193 217 218 167 152 141 135 119 104 114 164 180 150 156 160 179 200 209 202 199 184 184 197 195 197 199 205 212
185 173 208 165 193 248 311 19 86 211 230 82 76 97 103 116 107 140 133 149 148 137 128 136 130 138 195 141 144 162 183 198 182 178 173 168 167 183 190 189 208 205 198 208
145 188 190 188 211 243 312 99 176 155 103 82 82 88 130 121 134 91 108 155 168 161 166 163 157 170 234 212 154 169 229 207 176 171 173 166 163 180 189 197 205 207 197 196
314 18 66 8 285 303 356 41 44 54 44 20 50 78 108 133 202 236 240 243 203 194 207 183 124 174 216 215 182 198 218 202 174 179 192 188 178 205 231 222 213 207 203 199
267 349 10 293 288 332 340 354 2 13 15 22 26 20 74 138 246 236 239 254 236 216 228 221 193 211 226 212 203 212 193 157 169 198 210 207 201 198 225 255 255 222 221 207
239 210 202 238 241 224 266 287 333 354 332 322 338 344 336 303 267 271 246 245 230 221 221 210 216 244 240 220 216 220 192 164 161 195 237 220 214 215 202 205 315 340 288 255
Height
1493 1500 1505 1501 1497 1499 1501 1506 1508 1500 1492 1495 1499 1501 1502 1504 1507 1510 1512 1514 1516 1518 1521 1524 1527 1530 1532 1535 1537 1540 1542 1544 1546 1548 1550 1551 1553 1554 1556 1557 1558 1558 1559 1560
1500 1503 1494 1490 1490 1493 1497 1505 1506 1497 1489 1494 1500 1502 1500 1501 1503 1504 1507 1509 1511 1515 1519 1522 1524 1527 1529 1532 1534 1537 1540 1542 1544 1546 1548 1550 1552 1553 1554 1555 1556 1557 1557 1558
1502 1495 1487 1489 1491 1495 1498 1503 1502 1501 1495 1494 1501 1511 1505 1501 1502 1504 1505 1505 1507 1510 1513 1518 1521 1524 1526 1528 1531 1534 1536 1539 1542 1544 1546 1548 1550 1551 1552 1553 1554 1555 1556 1556
1493 1487 1487 1489 1491 1492 1503 1491 1492 1495 1505 1514 1507 1528 1511 1502 1502 1501 1502 1504 1505 1507 1510 1514 1517 1519 1522 1525 1528 1531 1533 1536 1539 1542 1543 1545 1546 1547 1548 1550 1551 1553 1554 1555
1492 1485 1487 1490 1488 1487 1491 1485 1488 1493 1503 1513 1512 1523 1518 1504 1504 1499 1497 1499 1501 1504 1506 1510 1512 1514 1517 1521 1525 1528 1530 1533 1536 1539 1540 1542 1544 1545 1547 1548 1549 1551 1552 1552
1485 1480 1481 1482 1479 1479 1482 1486 1492 1501 1512 1527 1516 1521 1521 1505 1497 1493 1493 1496 1498 1501 1504 1506 1509 1512 1515 1518 1522 1525 1527 1530 1533 1535 1538 1539 1541 1543 1544 1545 1546 1548 1549 1550
1490 1482 1477 1476 1482 1481 1484 1505 1527 1530 1539 1533 1514 1517 1514 1492 1486 1486 1488 1491 1494 1497 1500 1503 1506 1509 1511 1515 1518 1521 1524 1526 1529 1532 1534 1536 1538 1540 1541 1543 1544 1545 1546 1547
1503 1501 1480 1475 1480 1487 1488 1502 1528 1540 1543 1532 1515 1517 1502 1483 1482 1483 1485 1487 1490 1494 1496 1498 1501 1503 1507 1510 1514 1517 1520 1522 1525 1528 1530 1533 1535 1537 1538 1540 1541 1542 1543 1544
1501 1498 1476 1472 1471 1476 1487 1496 1499 1519 1526 1532 1525 1510 1494 1483 1483 1483 1485 1487 1489 1491 1494 1496 1498 1501 1504 1507 1509 1513 1516 1519 1522 1524 1527 1529 1531 1533 1535 1537 1539 1540 1541 1542
1485 1494 1480 1472 1471 1472 1476 1483 1502 1517 1533 1539 1528 1517 1509 1493 1488 1485 1485 1486 1487 1489 1491 1494 1496 1499 1502 1504 1507 1511 1514 1516 1519 1521 1524 1526 1528 1530 1532 1534 1535 1536 1538 1539
1478 1492 1488 1480 1482 1484 1481 1485 1496 1512 1518 1533 1537 1521 1487 1486 1483 1483 1483 1484 1486 1487 1490 1492 1494 1497 1500 1503 1506 1508 1511 1514 1516 1518 1520 1522 1524 1526 1528 1530 1531 1533 1534 1535
1477 1491 1499 1488 1476 1471 1476 1482 1493 1511 1515 1520 1526 1514 1477 1477 1477 1479 1481 1483 1485 1486 1488 1490 1492 1495 1497 1500 1502 1505 1507 1510 1512 1515 1517 1519 1521 1523 1524 1526 1527 1529 1530 1531
1477 1492 1508 1504 1494 1482 1480 1480 1485 1496 1508 1517 1523 1509 1477 1477 1478 1479 1480 1482 1484 1485 1487 1488 1491 1493 1495 1497 1499 1502 1504 1506 1509 1512 1514 1515 1516 1518 1520 1522 1523 1525 1526 1527
1473 1491 1502 1510 1503 1490 1486 1482 1480 1491 1508 1510 1505 1497 1484 1479 1479 1478 1479 1481 1482 1484 1486 1487 1489 1491 1493 1495 1497 1498 1500 1503 1506 1508 1510 1511 1512 1514 1516 1518 1519 1521 1522 1523
1477 1492 1490 1490 1485 1482 1483 1482 1480 1484 1490 1498 1493 1488 1481 1476 1476 1477 1478 1480 1482 1483 1485 1486 1488 1489 1490 1492 1494 1496 1498 1499 1501 1504 1505 1507 1509 1511 1513 1514 1515 1517 1518 1519
1483 1491 1491 1492 1484 1483 1484 1480 1479 1479 1479 1482 1483 1484 1475 1474 1476 1478 1478 1479 1480 1481 1483 1485 1486 1487 1488 1489 1491 1493 1494 1496 1498 1499 1501 1503 1505 1507 1508 1510 1511 1512 1513 1514
1488 1493 1500 1503 1491 1487 1495 1483 1480 1481 1479 1480 1485 1483 1475 1475 1476 1477 1478 1479 1480 1480 1482 1483 1484 1485 1486 1487 1489 1489 1492 1493 1494 1495 1497 1498 1500 1502 1503 1505 1507 1508 1508 1509
1488 1495 1504 1506 1500 1508 1494 1477 1476 1479 1480 1477 1476 1476 1475 1474 1475 1476 1477 1478 1480 1481 1481 1482 1483 1484 1485 1486 1487 1487 1488 1490 1492 1492 1493 1495 1496 1497 1499 1500 1501 1503 1504 1505
1479 1490 1502 1509 1510 1503 1487 1478 1477 1481 1487 1480 1478 1477 1476 1476 1476 1479 1478 1477 1478 1479 1480 1481 1481 1482 1482 1483 1484 1485 1486 1487 1487 1489 1489 1490 1491 1492 1494 1495 1496 1497 1498 1499
1479 1485 1498 1505 1508 1509 1492 1477 1473 1477 1491 1482 1479 1478 1477 1476 1483 1483 1479 1478 1478 1478 1479 1478 1479 1479 1480 1481 1481 1482 1482 1483 1483 1484 1484 1486 1487 1489 1490 1491 1492 1493 1494 1495
1492 1493 1498 1503 1506 1499 1484 1477 1474 1491 1493 1482 1479 1478 1478 1478 1479 1479 1478 1477 1477 1478 1477 1477 1477 1477 1478 1478 1478 1478 1478 1479 1480 1481 1482 1483 1483 1485 1486 1486 1488 1489 1491 1491
1496 1499 1501 1503 1506 1502 1482 1478 1483 1486 1481 1480 1479 1478 1477 1477 1476 1476 1475 1475 1475 1476 1476 1475 1475 1475 1475 1475 1475 1475 1475 1476 1477 1478 1479 1480 1481 1481 1482 1483 1485 1486 1487 1487
1492 1493 1494 1496 1497 1487 1482 1481 1481 1480 1480 1479 1478 1478 1477 1476 1476 1475 1474 1474 1474 1474 1474 1474 1473 1472 1473 1473 1473 1473 1473 1474 1474 1475 1476 1477 1478 1478 1479 1480 1481 1482 1483 1483
1490 1486 1489 1490 1487 1484 1482 1481 1480 1480 1479 1478 1477 1477 1476 1476 1475 1474 1473 1472 1471 1471 1471 1471 1471 1471 1470 1470 1470 1471 1471 1472 1473 1473 1474 1474 1475 1475 1476 1477 1477 1478 1478 1479
1489 1488 1490 1490 1485 1483 1481 1481 1480 1479 1478 1477 1476 1475 1474 1474 1473 1472 1471 1471 1469 1469 1469 1469 1468 1468 1468 1468 1468 1469 1469 1469 1470 1470 1470 1471 1472 1471 1472 1473 1473 1474 1474 1475
1485 1486 1489 1488 1483 1483 1481 1479 1478 1477 1476 1475 1474 1473 1473 1472 1471 1470 1469 1468 1467 1467 1467 1466 1465 1465 1465 1465 1465 1466 1466 1466 1466 1467 1467 1467 1468 1468 1468 1469 1469 1470 1470 1471